| time (UTC) | temp F | wind direction | speed knots | gust knots | rain 1hr in | rain 24hr in | rain mn in | humidity % | barometer mb |
| 20260508153558 | 65 | 5 | 1.7 | 7.0 | 0.00 | 0.00 | 0.00 | 40 | 1015.4 |
| 20260508153052 | 65 | 275 | 1.7 | 7.0 | 0.00 | 0.00 | 0.00 | 42 | 1015.5 |
| 20260508152547 | 64 | 42 | 1.7 | 7.0 | 0.00 | 0.00 | 0.00 | 45 | 1015.5 |
| 20260508152040 | 64 | 252 | 2.6 | 7.0 | 0.00 | 0.00 | 0.00 | 43 | 1015.6 |
| 20260508151535 | 63 | 67 | 1.7 | 7.0 | 0.00 | 0.00 | 0.00 | 43 | 1015.5 |
| 20260508151029 | 63 | 135 | 0.9 | 6.1 | 0.00 | 0.00 | 0.00 | 47 | 1015.6 |
| 20260508150522 | 62 | 306 | 1.7 | 6.1 | 0.00 | 0.00 | 0.00 | 46 | 1015.6 |
| 20260508150017 | 62 | 241 | 1.7 | 3.5 | 0.00 | 0.00 | 0.00 | 47 | 1015.6 |
| 20260508145518 | 62 | 252 | 0.9 | 3.5 | 0.00 | 0.00 | 0.00 | 45 | 1015.8 |
| 20260508145018 | 61 | 271 | 0.9 | 2.6 | 0.00 | 0.00 | 0.00 | 48 | 1015.8 |
| 20260508144517 | 60 | 175 | 1.7 | 3.5 | 0.00 | 0.00 | 0.00 | 48 | 1015.8 |
| 20260508144018 | 60 | 255 | 1.7 | 5.2 | 0.00 | 0.00 | 0.00 | 49 | 1015.9 |
| 20260508143518 | 60 | 39 | 1.7 | 5.2 | 0.00 | 0.00 | 0.00 | 46 | 1015.9 |
| 20260508143020 | 59 | 225 | 0.9 | 3.5 | 0.00 | 0.00 | 0.00 | 53 | 1015.9 |
| 20260508142517 | 59 | 227 | 0.9 | 3.5 | 0.00 | 0.00 | 0.00 | 52 | 1015.8 |
| 20260508142014 | 59 | 192 | 0.9 | 2.6 | 0.00 | 0.00 | 0.00 | 50 | 1015.8 |
| 20260508141720 | 58 | 0 | 0.0 | 3.5 | 0.00 | 0.00 | 0.00 | 53 | 1016.0 |
| 20260508141608 | 59 | 229 | 0.9 | 3.5 | 0.00 | 0.00 | 0.00 | 51 | 1015.9 |
| 20260508140510 | 57 | 248 | 0.0 | 3.5 | 0.00 | 0.00 | 0.00 | 57 | 1016.0 |
| 20260508140010 | 56 | 141 | 0.9 | 3.5 | 0.00 | 0.00 | 0.00 | 57 | 1016.0 |
| 20260508135508 | 56 | 183 | 0.9 | 4.3 | 0.00 | 0.00 | 0.00 | 57 | 1016.0 |
| 20260508135007 | 55 | 33 | 0.9 | 4.3 | 0.00 | 0.00 | 0.00 | 59 | 1016.0 |
| 20260508134725 | 54 | 65 | 0.9 | 3.5 | 0.00 | 0.00 | 0.00 | 61 | 1016.0 |
| 20260508134229 | 54 | 61 | 0.9 | 3.5 | 0.00 | 0.00 | 0.00 | 61 | 1016.1 |
| 20260508133508 | 53 | 294 | 0.9 | 3.5 | 0.00 | 0.00 | 0.00 | 65 | 1016.1 |
| 20260508133009 | 53 | 238 | 0.9 | 3.5 | 0.00 | 0.00 | 0.00 | 65 | 1016.2 |
| 20260508132505 | 52 | 177 | 0.9 | 3.5 | 0.00 | 0.00 | 0.00 | 68 | 1016.2 |
| 20260508131958 | 52 | 216 | 0.9 | 3.5 | 0.00 | 0.00 | 0.00 | 71 | 1016.2 |
| 20260508131723 | 51 | 238 | 0.9 | 3.5 | 0.00 | 0.00 | 0.00 | 71 | 1016.2 |
| 20260508130946 | 51 | 317 | 0.0 | 0.9 | 0.00 | 0.01 | 0.00 | 75 | 1016.1 |
| 20260508130440 | 50 | 272 | 0.0 | 1.7 | 0.00 | 0.01 | 0.00 | 76 | 1016.2 |
| 20260508130202 | 50 | 287 | 0.0 | 1.7 | 0.00 | 0.01 | 0.00 | 77 | 1016.3 |
| 20260508125648 | 49 | 227 | 0.0 | 1.7 | 0.00 | 0.01 | 0.00 | 79 | 1016.3 |
| 20260508124921 | 49 | 242 | 0.0 | 1.7 | 0.00 | 0.01 | 0.00 | 79 | 1016.3 |
| 20260508124415 | 48 | 325 | 0.0 | 1.7 | 0.00 | 0.01 | 0.00 | 80 | 1016.2 |
| 20260508123910 | 47 | 306 | 0.9 | 3.5 | 0.00 | 0.01 | 0.00 | 81 | 1016.3 |
| 20260508123403 | 47 | 346 | 0.9 | 3.5 | 0.00 | 0.01 | 0.00 | 84 | 1016.2 |
| 20260508122858 | 46 | 38 | 0.9 | 2.6 | 0.00 | 0.01 | 0.00 | 86 | 1016.1 |
| 20260508122351 | 46 | 307 | 0.0 | 1.7 | 0.00 | 0.01 | 0.00 | 88 | 1016.1 |
| 20260508121845 | 45 | 279 | 0.0 | 0.9 | 0.00 | 0.01 | 0.00 | 89 | 1016.1 |
| 20260508121339 | 45 | 286 | 0.0 | 1.7 | 0.00 | 0.01 | 0.00 | 89 | 1016.0 |
| 20260508120833 | 45 | 274 | 0.0 | 1.7 | 0.00 | 0.01 | 0.00 | 89 | 1016.0 |
| 20260508120327 | 44 | 355 | 0.0 | 1.7 | 0.00 | 0.01 | 0.00 | 90 | 1016.0 |
| 20260508115823 | 44 | 355 | 0.0 | 0.0 | 0.00 | 0.01 | 0.00 | 89 | 1016.0 |
| 20260508115318 | 44 | 355 | 0.0 | 0.0 | 0.00 | 0.01 | 0.00 | 88 | 1015.9 |
| 20260508114819 | 43 | 355 | 0.0 | 0.0 | 0.00 | 0.01 | 0.00 | 88 | 1015.7 |
| 20260508114805 | 43 | 355 | 0.0 | 0.0 | 0.00 | 0.01 | 0.00 | 87 | 1015.7 |
| 20260508114302 | 43 | 355 | 0.0 | 0.0 | 0.00 | 0.01 | 0.00 | 87 | 1015.8 |
| 20260508113316 | 43 | 355 | 0.0 | 0.0 | 0.00 | 0.01 | 0.00 | 86 | 1015.8 |
| 20260508112813 | 43 | 355 | 0.0 | 0.0 | 0.00 | 0.01 | 0.00 | 86 | 1015.7 |
| 20260508112313 | 43 | 355 | 0.0 | 0.0 | 0.00 | 0.01 | 0.00 | 86 | 1015.6 |
| 20260508111809 | 43 | 355 | 0.0 | 0.0 | 0.00 | 0.01 | 0.00 | 86 | 1015.6 |
| 20260508111309 | 42 | 355 | 0.0 | 0.0 | 0.00 | 0.01 | 0.00 | 85 | 1015.5 |
| 20260508110806 | 42 | 355 | 0.0 | 0.0 | 0.00 | 0.01 | 0.00 | 85 | 1015.3 |
| 20260508110306 | 42 | 355 | 0.0 | 0.0 | 0.00 | 0.01 | 0.00 | 85 | 1015.2 |
| 20260508105805 | 42 | 355 | 0.0 | 0.0 | 0.00 | 0.01 | 0.00 | 85 | 1015.2 |
| 20260508105306 | 42 | 355 | 0.0 | 0.0 | 0.00 | 0.01 | 0.00 | 85 | 1015.1 |
| 20260508104806 | 42 | 355 | 0.0 | 0.0 | 0.00 | 0.01 | 0.00 | 84 | 1014.9 |
| 20260508104305 | 42 | 355 | 0.0 | 0.0 | 0.00 | 0.01 | 0.00 | 84 | 1014.9 |
| 20260508103806 | 43 | 355 | 0.0 | 0.0 | 0.00 | 0.01 | 0.00 | 84 | 1014.9 |
| 20260508103307 | 43 | 355 | 0.0 | 0.0 | 0.00 | 0.01 | 0.00 | 83 | 1014.8 |
| 20260508102806 | 43 | 355 | 0.0 | 0.0 | 0.00 | 0.01 | 0.00 | 83 | 1014.7 |
| 20260508102307 | 43 | 355 | 0.0 | 0.0 | 0.00 | 0.01 | 0.00 | 83 | 1014.7 |
| 20260508101806 | 43 | 355 | 0.0 | 0.0 | 0.00 | 0.01 | 0.00 | 82 | 1014.6 |
| 20260508101304 | 43 | 355 | 0.0 | 0.0 | 0.00 | 0.01 | 0.00 | 82 | 1014.4 |
| 20260508100806 | 44 | 355 | 0.0 | 0.0 | 0.00 | 0.01 | 0.00 | 82 | 1014.3 |
| 20260508100527 | 44 | 355 | 0.0 | 0.0 | 0.00 | 0.01 | 0.00 | 81 | 1014.2 |
| 20260508100032 | 44 | 355 | 0.0 | 0.0 | 0.00 | 0.01 | 0.00 | 81 | 1014.1 |
| 20260508095306 | 44 | 355 | 0.0 | 0.0 | 0.00 | 0.01 | 0.00 | 81 | 1014.2 |
| 20260508094806 | 44 | 355 | 0.0 | 0.0 | 0.00 | 0.01 | 0.00 | 81 | 1014.1 |
| 20260508094742 | 45 | 355 | 0.0 | 0.0 | 0.00 | 0.01 | 0.00 | 80 | 1014.0 |
| 20260508093805 | 45 | 355 | 0.0 | 0.0 | 0.00 | 0.01 | 0.00 | 80 | 1014.0 |
| 20260508093305 | 45 | 355 | 0.0 | 0.0 | 0.00 | 0.01 | 0.00 | 80 | 1014.1 |
| 20260508092804 | 45 | 355 | 0.0 | 0.0 | 0.00 | 0.01 | 0.00 | 80 | 1014.1 |
| 20260508092313 | 46 | 355 | 0.0 | 0.0 | 0.00 | 0.01 | 0.00 | 80 | 1014.2 |
| 20260508091800 | 46 | 355 | 0.0 | 0.0 | 0.00 | 0.01 | 0.00 | 80 | 1014.2 |
| 20260508091254 | 46 | 355 | 0.0 | 0.0 | 0.00 | 0.01 | 0.00 | 80 | 1014.2 |
| 20260508090748 | 46 | 355 | 0.0 | 0.0 | 0.00 | 0.01 | 0.00 | 80 | 1014.2 |
| 20260508090244 | 46 | 355 | 0.0 | 1.7 | 0.00 | 0.01 | 0.00 | 80 | 1014.1 |
| 20260508085744 | 46 | 355 | 0.0 | 1.7 | 0.00 | 0.01 | 0.00 | 80 | 1014.0 |
| 20260508085244 | 46 | 355 | 0.0 | 1.7 | 0.00 | 0.01 | 0.00 | 80 | 1013.9 |
| 20260508084743 | 46 | 355 | 0.0 | 1.7 | 0.00 | 0.01 | 0.00 | 80 | 1013.8 |
| 20260508084243 | 46 | 0 | 0.0 | 1.7 | 0.00 | 0.01 | 0.00 | 80 | 1013.8 |
| 20260508083742 | 46 | 342 | 0.0 | 1.7 | 0.00 | 0.01 | 0.00 | 79 | 1013.8 |
| 20260508083456 | 47 | 51 | 0.0 | 0.9 | 0.00 | 0.01 | 0.00 | 79 | 1013.8 |
| 20260508082738 | 47 | 55 | 0.0 | 0.9 | 0.00 | 0.01 | 0.00 | 79 | 1013.8 |
| 20260508082435 | 47 | 15 | 0.0 | 2.6 | 0.00 | 0.01 | 0.00 | 81 | 1013.6 |
| 20260508082324 | 47 | 55 | 0.0 | 1.7 | 0.00 | 0.01 | 0.00 | 80 | 1013.8 |
| 20260508081231 | 47 | 65 | 0.9 | 2.6 | 0.00 | 0.01 | 0.00 | 83 | 1013.6 |
| 20260508080952 | 47 | 25 | 0.9 | 2.6 | 0.00 | 0.01 | 0.00 | 83 | 1013.6 |
| 20260508080229 | 47 | 314 | 0.0 | 2.6 | 0.00 | 0.01 | 0.00 | 83 | 1013.5 |
| 20260508075730 | 47 | 20 | 0.0 | 2.6 | 0.00 | 0.01 | 0.00 | 83 | 1013.6 |
| 20260508075228 | 46 | 333 | 0.0 | 2.6 | 0.00 | 0.01 | 0.00 | 84 | 1013.5 |
| 20260508074729 | 46 | 37 | 0.0 | 1.7 | 0.00 | 0.01 | 0.00 | 85 | 1013.5 |
| 20260508074450 | 46 | 64 | 0.9 | 3.5 | 0.00 | 0.01 | 0.00 | 86 | 1013.5 |
| 20260508073727 | 46 | 355 | 0.9 | 4.3 | 0.00 | 0.01 | 0.00 | 87 | 1013.4 |
| 20260508073227 | 46 | 84 | 0.9 | 4.3 | 0.00 | 0.01 | 0.00 | 89 | 1013.4 |
| 20260508072720 | 46 | 90 | 0.9 | 3.5 | 0.00 | 0.01 | 0.00 | 89 | 1013.2 |
| 20260508072213 | 46 | 19 | 0.9 | 3.5 | 0.00 | 0.01 | 0.00 | 90 | 1013.1 |
| 20260508071707 | 46 | 5 | 0.9 | 2.6 | 0.00 | 0.01 | 0.00 | 90 | 1013.1 |
| 20260508071203 | 46 | 23 | 0.0 | 2.6 | 0.00 | 0.01 | 0.00 | 90 | 1013.0 |
| 20260508070655 | 46 | 12 | 0.0 | 1.7 | 0.00 | 0.01 | 0.00 | 90 | 1013.0 |
| 20260508070418 | 46 | 50 | 0.0 | 2.6 | 0.00 | 0.01 | 0.00 | 90 | 1012.9 |
| 20260508065640 | 46 | 13 | 0.0 | 2.6 | 0.00 | 0.01 | 0.00 | 90 | 1012.9 |
| 20260508065136 | 46 | 0 | 0.0 | 2.6 | 0.00 | 0.01 | 0.00 | 90 | 1012.7 |
| 20260508064629 | 47 | 52 | 0.0 | 2.6 | 0.00 | 0.01 | 0.00 | 90 | 1012.7 |
| 20260508064123 | 47 | 355 | 0.0 | 0.9 | 0.00 | 0.01 | 0.00 | 90 | 1012.6 |
| 20260508063617 | 47 | 355 | 0.0 | 0.9 | 0.00 | 0.01 | 0.00 | 90 | 1012.6 |
| 20260508063112 | 47 | 355 | 0.0 | 0.9 | 0.00 | 0.01 | 0.00 | 90 | 1012.5 |
| 20260508062606 | 47 | 240 | 0.0 | 0.0 | 0.00 | 0.01 | 0.00 | 90 | 1012.5 |
| 20260508062100 | 47 | 240 | 0.0 | 0.0 | 0.00 | 0.01 | 0.00 | 90 | 1012.4 |
| 20260508061554 | 47 | 240 | 0.0 | 0.0 | 0.00 | 0.01 | 0.00 | 90 | 1012.3 |
| 20260508061312 | 47 | 240 | 0.0 | 0.0 | 0.00 | 0.01 | 0.00 | 90 | 1012.3 |
| 20260508060542 | 47 | 240 | 0.0 | 0.0 | 0.00 | 0.01 | 0.00 | 90 | 1012.3 |
| 20260508060036 | 48 | 240 | 0.0 | 0.0 | 0.00 | 0.01 | 0.00 | 90 | 1012.2 |
| 20260508055529 | 48 | 240 | 0.0 | 0.0 | 0.00 | 0.01 | 0.00 | 90 | 1012.3 |
| 20260508055023 | 48 | 240 | 0.0 | 0.0 | 0.00 | 0.01 | 0.00 | 90 | 1012.4 |
| 20260508054749 | 48 | 240 | 0.0 | 0.0 | 0.00 | 0.01 | 0.00 | 90 | 1012.4 |
| 20260508054011 | 48 | 240 | 0.0 | 0.9 | 0.00 | 0.01 | 0.00 | 90 | 1012.4 |
| 20260508053504 | 48 | 240 | 0.0 | 0.9 | 0.00 | 0.02 | 0.00 | 90 | 1012.5 |
| 20260508053000 | 48 | 240 | 0.0 | 0.0 | 0.00 | 0.02 | 0.00 | 90 | 1012.5 |
| 20260508052453 | 48 | 240 | 0.0 | 0.0 | 0.00 | 0.02 | 0.00 | 90 | 1012.4 |
| 20260508051947 | 48 | 240 | 0.0 | 0.0 | 0.00 | 0.03 | 0.00 | 90 | 1012.4 |
| 20260508051441 | 48 | 240 | 0.0 | 0.9 | 0.00 | 0.05 | 0.00 | 89 | 1012.3 |
| 20260508050936 | 49 | 240 | 0.0 | 0.9 | 0.00 | 0.06 | 0.00 | 89 | 1012.2 |
| 20260508050430 | 49 | 240 | 0.0 | 0.0 | 0.00 | 0.06 | 0.00 | 90 | 1012.1 |
| 20260508045923 | 49 | 240 | 0.0 | 0.0 | 0.00 | 0.06 | 0.00 | 90 | 1012.1 |
| 20260508045417 | 49 | 240 | 0.0 | 0.0 | 0.00 | 0.07 | 0.00 | 89 | 1012.0 |
| 20260508044911 | 49 | 240 | 0.0 | 0.0 | 0.00 | 0.07 | 0.00 | 89 | 1012.0 |
| 20260508044632 | 49 | 240 | 0.0 | 0.0 | 0.00 | 0.07 | 0.00 | 89 | 1012.0 |
| 20260508043859 | 49 | 240 | 0.0 | 0.0 | 0.00 | 0.07 | 0.00 | 89 | 1011.9 |
| 20260508043353 | 49 | 240 | 0.0 | 0.9 | 0.00 | 0.08 | 0.00 | 89 | 1011.8 |
| 20260508042848 | 49 | 240 | 0.0 | 0.9 | 0.00 | 0.10 | 0.00 | 89 | 1011.8 |
| 20260508042601 | 49 | 263 | 0.0 | 0.0 | 0.00 | 0.11 | 0.00 | 89 | 1011.7 |
| 20260508041835 | 49 | 230 | 0.0 | 0.9 | 0.00 | 0.14 | 0.00 | 89 | 1011.7 |
| 20260508041329 | 49 | 230 | 0.0 | 1.7 | 0.00 | 0.23 | 0.00 | 89 | 1011.7 |
| 20260508040823 | 50 | 252 | 0.0 | 0.9 | 0.00 | 0.32 | 0.00 | 89 | 1011.7 |
| 20260508040317 | 50 | 304 | 0.0 | 1.7 | 0.00 | 0.37 | 0.00 | 88 | 1011.7 |
| 20260508035811 | 50 | 281 | 0.0 | 1.7 | 0.00 | 0.37 | 0.37 | 88 | 1011.7 |
| 20260508035307 | 50 | 207 | 0.0 | 0.9 | 0.00 | 0.37 | 0.37 | 88 | 1011.6 |
| 20260508034800 | 50 | 207 | 0.0 | 0.0 | 0.00 | 0.37 | 0.37 | 88 | 1011.6 |
| 20260508034519 | 50 | 207 | 0.0 | 0.0 | 0.00 | 0.37 | 0.37 | 88 | 1011.4 |
| 20260508033747 | 50 | 207 | 0.0 | 0.0 | 0.00 | 0.37 | 0.37 | 88 | 1011.4 |
| 20260508033241 | 50 | 207 | 0.0 | 0.9 | 0.00 | 0.37 | 0.37 | 88 | 1011.4 |
| 20260508032736 | 50 | 207 | 0.0 | 1.7 | 0.00 | 0.37 | 0.37 | 88 | 1011.4 |
| 20260508032230 | 50 | 211 | 0.0 | 0.9 | 0.00 | 0.37 | 0.37 | 87 | 1011.4 |
| 20260508031955 | 51 | 211 | 0.0 | 0.9 | 0.00 | 0.37 | 0.37 | 87 | 1011.4 |
| 20260508031217 | 51 | 219 | 0.0 | 1.7 | 0.00 | 0.37 | 0.37 | 87 | 1011.3 |
| 20260508030931 | 51 | 219 | 0.0 | 1.7 | 0.00 | 0.37 | 0.37 | 87 | 1011.3 |
| 20260508030205 | 51 | 268 | 0.0 | 1.7 | 0.00 | 0.37 | 0.37 | 88 | 1011.3 |
| 20260508025700 | 51 | 265 | 0.0 | 1.7 | 0.00 | 0.37 | 0.37 | 87 | 1011.3 |
| 20260508025152 | 51 | 209 | 0.0 | 1.7 | 0.00 | 0.37 | 0.37 | 87 | 1011.3 |
| 20260508024647 | 51 | 202 | 0.0 | 1.7 | 0.00 | 0.37 | 0.37 | 87 | 1011.3 |
| 20260508024141 | 51 | 202 | 0.0 | 1.7 | 0.00 | 0.37 | 0.37 | 87 | 1011.3 |
| 20260508023640 | 51 | 203 | 0.0 | 1.7 | 0.00 | 0.37 | 0.37 | 87 | 1011.3 |
| 20260508023126 | 51 | 203 | 0.0 | 1.7 | 0.00 | 0.37 | 0.37 | 87 | 1011.2 |
| 20260508022619 | 51 | 201 | 0.0 | 3.5 | 0.00 | 0.37 | 0.37 | 86 | 1011.2 |
| 20260508022330 | 51 | 271 | 0.0 | 3.5 | 0.00 | 0.37 | 0.37 | 86 | 1011.2 |
| 20260508021607 | 51 | 192 | 0.0 | 1.7 | 0.00 | 0.37 | 0.37 | 86 | 1011.2 |
| 20260508021322 | 51 | 216 | 0.0 | 0.9 | 0.00 | 0.37 | 0.37 | 85 | 1011.1 |
| 20260508020556 | 51 | 252 | 0.0 | 0.0 | 0.00 | 0.37 | 0.37 | 85 | 1011.0 |
| 20260508020525 | 51 | 252 | 0.0 | 0.9 | 0.00 | 0.37 | 0.37 | 85 | 1011.0 |
| 20260508015811 | 51 | 252 | 0.0 | 0.9 | 0.00 | 0.37 | 0.37 | 84 | 1011.0 |
| 20260508015041 | 51 | 252 | 0.0 | 0.9 | 0.00 | 0.37 | 0.37 | 84 | 1010.9 |
| 20260508014531 | 52 | 245 | 0.0 | 1.7 | 0.00 | 0.37 | 0.37 | 84 | 1010.9 |
| 20260508014029 | 52 | 248 | 0.0 | 1.7 | 0.00 | 0.37 | 0.37 | 83 | 1010.7 |
| 20260508013737 | 52 | 217 | 0.0 | 2.6 | 0.00 | 0.37 | 0.37 | 83 | 1010.8 |
| 20260508013008 | 52 | 218 | 0.0 | 2.6 | 0.00 | 0.37 | 0.37 | 82 | 1010.8 |
| 20260508012504 | 52 | 250 | 0.0 | 0.0 | 0.00 | 0.37 | 0.37 | 82 | 1010.8 |
| 20260508011956 | 52 | 250 | 0.0 | 0.0 | 0.00 | 0.37 | 0.37 | 81 | 1010.7 |
| 20260508011450 | 53 | 250 | 0.0 | 0.0 | 0.00 | 0.37 | 0.37 | 81 | 1010.7 |
| 20260508010945 | 53 | 250 | 0.0 | 0.0 | 0.00 | 0.37 | 0.37 | 80 | 1010.7 |
| 20260508010700 | 53 | 250 | 0.0 | 0.0 | 0.00 | 0.37 | 0.37 | 80 | 1010.6 |
| 20260508005934 | 53 | 250 | 0.0 | 0.0 | 0.00 | 0.37 | 0.37 | 79 | 1010.5 |
| 20260508005428 | 53 | 250 | 0.0 | 0.0 | 0.00 | 0.37 | 0.37 | 79 | 1010.5 |
| 20260508004921 | 54 | 250 | 0.0 | 0.0 | 0.00 | 0.37 | 0.37 | 78 | 1010.4 |
| 20260508004415 | 54 | 250 | 0.0 | 0.0 | 0.00 | 0.37 | 0.37 | 77 | 1010.4 |
| 20260508003910 | 54 | 250 | 0.0 | 0.0 | 0.00 | 0.37 | 0.37 | 76 | 1010.3 |
| 20260508003852 | 54 | 250 | 0.0 | 0.0 | 0.00 | 0.37 | 0.37 | 76 | 1010.2 |
| 20260508002858 | 55 | 250 | 0.0 | 0.0 | 0.00 | 0.37 | 0.37 | 75 | 1010.1 |
| 20260508002827 | 55 | 250 | 0.0 | 0.9 | 0.00 | 0.37 | 0.37 | 74 | 1010.1 |
| 20260508001846 | 55 | 250 | 0.0 | 0.9 | 0.00 | 0.37 | 0.37 | 74 | 1010.1 |
| 20260508001607 | 56 | 262 | 0.0 | 0.0 | 0.00 | 0.37 | 0.37 | 73 | 1010.1 |
| 20260508000833 | 56 | 262 | 0.0 | 0.0 | 0.00 | 0.37 | 0.37 | 73 | 1010.0 |
| 20260508000554 | 56 | 262 | 0.0 | 0.0 | 0.00 | 0.37 | 0.37 | 72 | 1010.0 |
| 20260507235827 | 56 | 262 | 0.0 | 1.7 | 0.00 | 0.37 | 0.37 | 71 | 1009.9 |
| 20260507235324 | 56 | 262 | 0.0 | 1.7 | 0.00 | 0.37 | 0.37 | 71 | 1009.9 |
| 20260507234825 | 56 | 238 | 0.0 | 1.7 | 0.00 | 0.37 | 0.37 | 71 | 1009.8 |
| 20260507234325 | 57 | 253 | 0.0 | 3.5 | 0.00 | 0.37 | 0.37 | 69 | 1009.8 |
| 20260507233825 | 57 | 205 | 0.9 | 3.5 | 0.00 | 0.37 | 0.37 | 70 | 1009.8 |
| 20260507233324 | 57 | 157 | 0.9 | 2.6 | 0.00 | 0.37 | 0.37 | 69 | 1009.7 |
| 20260507232821 | 57 | 229 | 0.9 | 2.6 | 0.00 | 0.37 | 0.37 | 69 | 1009.6 |
| 20260507232321 | 58 | 209 | 0.9 | 3.5 | 0.00 | 0.37 | 0.37 | 69 | 1009.6 |
| 20260507231817 | 58 | 198 | 0.9 | 3.5 | 0.00 | 0.37 | 0.37 | 68 | 1009.6 |
| 20260507231807 | 58 | 210 | 0.9 | 2.6 | 0.00 | 0.37 | 0.37 | 68 | 1009.4 |
| 20260507230818 | 58 | 65 | 0.0 | 2.6 | 0.00 | 0.37 | 0.37 | 68 | 1009.4 |
| 20260507230315 | 58 | 126 | 0.0 | 3.5 | 0.00 | 0.37 | 0.37 | 68 | 1009.3 |
| 20260507225814 | 58 | 250 | 0.9 | 3.5 | 0.00 | 0.37 | 0.37 | 67 | 1009.2 |
| 20260507225532 | 59 | 263 | 0.9 | 2.6 | 0.00 | 0.37 | 0.37 | 67 | 1009.2 |
| 20260507224814 | 59 | 250 | 0.9 | 3.5 | 0.00 | 0.37 | 0.37 | 66 | 1009.2 |
| 20260507224315 | 59 | 221 | 0.9 | 3.5 | 0.00 | 0.37 | 0.37 | 65 | 1009.1 |
| 20260507223813 | 59 | 211 | 0.9 | 3.5 | 0.00 | 0.37 | 0.37 | 65 | 1009.1 |
| 20260507223313 | 59 | 109 | 0.9 | 4.3 | 0.00 | 0.37 | 0.37 | 65 | 1009.1 |
| 20260507222811 | 59 | 302 | 0.9 | 4.3 | 0.00 | 0.37 | 0.37 | 67 | 1009.0 |
| 20260507222317 | 59 | 209 | 0.9 | 4.3 | 0.00 | 0.37 | 0.37 | 66 | 1009.0 |
| 20260507221813 | 59 | 130 | 0.9 | 2.6 | 0.00 | 0.37 | 0.37 | 67 | 1009.0 |
| 20260507221312 | 59 | 128 | 0.9 | 2.6 | 0.00 | 0.37 | 0.37 | 66 | 1008.9 |
| 20260507220812 | 59 | 182 | 0.9 | 3.5 | 0.00 | 0.37 | 0.37 | 65 | 1009.0 |
| 20260507220314 | 59 | 211 | 0.9 | 3.5 | 0.00 | 0.37 | 0.37 | 64 | 1008.9 |
| 20260507215813 | 60 | 306 | 0.9 | 3.5 | 0.00 | 0.37 | 0.37 | 63 | 1008.9 |
| 20260507215313 | 60 | 183 | 0.9 | 3.5 | 0.00 | 0.37 | 0.37 | 64 | 1008.9 |
| 20260507215258 | 59 | 113 | 0.9 | 3.5 | 0.00 | 0.37 | 0.37 | 65 | 1008.8 |
| 20260507214312 | 59 | 104 | 0.9 | 2.6 | 0.00 | 0.37 | 0.37 | 65 | 1008.9 |
| 20260507213813 | 60 | 235 | 1.7 | 6.1 | 0.00 | 0.37 | 0.37 | 66 | 1008.8 |
| 20260507213312 | 60 | 249 | 1.7 | 6.1 | 0.00 | 0.37 | 0.37 | 64 | 1008.9 |
| 20260507212814 | 60 | 111 | 0.9 | 3.5 | 0.00 | 0.37 | 0.37 | 65 | 1008.9 |
| 20260507212311 | 60 | 118 | 0.9 | 2.6 | 0.00 | 0.37 | 0.37 | 63 | 1008.7 |
| 20260507211811 | 60 | 178 | 1.7 | 2.6 | 0.00 | 0.37 | 0.37 | 61 | 1008.9 |
| 20260507211312 | 60 | 120 | 0.9 | 5.2 | 0.00 | 0.37 | 0.37 | 62 | 1008.9 |
| 20260507210811 | 60 | 157 | 1.7 | 5.2 | 0.00 | 0.37 | 0.37 | 61 | 1008.8 |
| 20260507210311 | 60 | 113 | 0.9 | 5.2 | 0.00 | 0.37 | 0.37 | 63 | 1008.8 |
| 20260507205813 | 60 | 94 | 0.9 | 4.3 | 0.00 | 0.37 | 0.37 | 60 | 1008.7 |
| 20260507205312 | 60 | 190 | 0.9 | 4.3 | 0.00 | 0.37 | 0.37 | 60 | 1008.8 |
| 20260507204812 | 61 | 136 | 0.9 | 2.6 | 0.00 | 0.37 | 0.37 | 61 | 1008.7 |
| 20260507204311 | 61 | 114 | 0.9 | 3.5 | 0.00 | 0.37 | 0.37 | 62 | 1008.8 |
| 20260507203809 | 60 | 244 | 0.9 | 3.5 | 0.00 | 0.37 | 0.37 | 60 | 1009.0 |
| 20260507203310 | 61 | 246 | 1.7 | 3.5 | 0.00 | 0.37 | 0.37 | 58 | 1009.1 |
| 20260507203026 | 61 | 123 | 1.7 | 3.5 | 0.00 | 0.37 | 0.37 | 60 | 1009.1 |
| 20260507202309 | 62 | 257 | 0.9 | 3.5 | 0.00 | 0.37 | 0.37 | 60 | 1009.0 |
| 20260507201810 | 62 | 307 | 0.9 | 3.5 | 0.00 | 0.37 | 0.37 | 59 | 1009.0 |
| 20260507201310 | 61 | 119 | 0.9 | 2.6 | 0.00 | 0.37 | 0.37 | 62 | 1009.0 |
| 20260507201021 | 60 | 131 | 0.9 | 1.7 | 0.00 | 0.37 | 0.37 | 59 | 1009.0 |
| 20260507200256 | 60 | 118 | 0.9 | 3.5 | 0.00 | 0.37 | 0.37 | 60 | 1009.1 |
| 20260507200015 | 61 | 65 | 1.7 | 5.2 | 0.00 | 0.37 | 0.37 | 60 | 1009.1 |
| 20260507195244 | 62 | 129 | 1.7 | 5.2 | 0.00 | 0.37 | 0.37 | 62 | 1009.3 |
| 20260507194738 | 60 | 81 | 0.9 | 2.6 | 0.00 | 0.37 | 0.37 | 66 | 1009.5 |
| 20260507194453 | 59 | 189 | 0.9 | 3.5 | 0.00 | 0.37 | 0.37 | 63 | 1009.5 |
| 20260507193726 | 60 | 271 | 0.9 | 3.5 | 0.00 | 0.37 | 0.37 | 68 | 1009.6 |
| 20260507193227 | 60 | 250 | 0.9 | 3.5 | 0.00 | 0.37 | 0.37 | 70 | 1009.5 |
| 20260507192728 | 58 | 260 | 0.9 | 3.5 | 0.00 | 0.37 | 0.37 | 67 | 1009.3 |
| 20260507192227 | 59 | 288 | 0.9 | 5.2 | 0.00 | 0.37 | 0.37 | 68 | 1009.4 |
| 20260507191725 | 59 | 211 | 0.9 | 5.2 | 0.00 | 0.37 | 0.37 | 68 | 1009.4 |
| 20260507191223 | 59 | 306 | 0.9 | 3.5 | 0.00 | 0.37 | 0.37 | 67 | 1009.6 |
| 20260507190723 | 56 | 123 | 0.9 | 2.6 | 0.00 | 0.37 | 0.37 | 72 | 1009.4 |
| 20260507190223 | 56 | 137 | 0.9 | 2.6 | 0.00 | 0.37 | 0.37 | 69 | 1009.5 |
| 20260507185725 | 57 | 132 | 1.7 | 6.1 | 0.00 | 0.37 | 0.37 | 70 | 1009.7 |
| 20260507185221 | 57 | 237 | 1.7 | 6.1 | 0.00 | 0.37 | 0.37 | 72 | 1009.9 |
| 20260507184721 | 57 | 82 | 0.9 | 2.6 | 0.00 | 0.37 | 0.37 | 74 | 1010.0 |
| 20260507184221 | 57 | 267 | 1.7 | 3.5 | 0.00 | 0.37 | 0.37 | 78 | 1010.2 |
| 20260507183721 | 56 | 201 | 1.7 | 3.5 | 0.00 | 0.37 | 0.37 | 76 | 1009.7 |
| 20260507183223 | 57 | 126 | 1.7 | 6.1 | 0.00 | 0.37 | 0.37 | 69 | 1010.2 |
| 20260507182721 | 58 | 198 | 0.9 | 6.1 | 0.00 | 0.37 | 0.37 | 63 | 1010.4 |
| 20260507182440 | 57 | 151 | 0.9 | 2.6 | 0.00 | 0.37 | 0.37 | 69 | 1010.6 |
| 20260507181722 | 57 | 152 | 0.9 | 2.6 | 0.00 | 0.37 | 0.37 | 67 | 1010.4 |
| 20260507181223 | 57 | 218 | 0.9 | 2.6 | 0.00 | 0.37 | 0.37 | 73 | 1010.0 |
| 20260507180717 | 57 | 147 | 0.9 | 2.6 | 0.00 | 0.37 | 0.37 | 69 | 1010.2 |
| 20260507180210 | 56 | 120 | 0.9 | 2.6 | 0.00 | 0.37 | 0.37 | 75 | 1010.4 |
| 20260507175714 | 55 | 139 | 0.9 | 1.7 | 0.00 | 0.37 | 0.37 | 70 | 1010.4 |
| 20260507175158 | 55 | 117 | 0.0 | 1.7 | 0.00 | 0.37 | 0.37 | 69 | 1010.5 |
| 20260507174652 | 55 | 104 | 0.9 | 1.7 | 0.00 | 0.37 | 0.37 | 68 | 1010.8 |
| 20260507174407 | 55 | 103 | 0.9 | 2.6 | 0.00 | 0.37 | 0.37 | 69 | 1010.6 |
| 20260507173640 | 55 | 129 | 0.9 | 2.6 | 0.00 | 0.37 | 0.37 | 69 | 1010.4 |
| 20260507173355 | 56 | 104 | 0.9 | 1.7 | 0.00 | 0.37 | 0.37 | 72 | 1010.8 |
| 20260507172628 | 56 | 95 | 0.0 | 1.7 | 0.00 | 0.37 | 0.37 | 73 | 1010.9 |
| 20260507172123 | 55 | 163 | 0.0 | 2.6 | 0.00 | 0.37 | 0.37 | 72 | 1010.8 |
| 20260507171616 | 55 | 163 | 0.0 | 2.6 | 0.00 | 0.37 | 0.37 | 74 | 1010.9 |
| 20260507171330 | 55 | 169 | 0.9 | 2.6 | 0.00 | 0.37 | 0.37 | 73 | 1011.0 |
| 20260507170605 | 57 | 115 | 0.9 | 1.7 | 0.00 | 0.37 | 0.37 | 72 | 1011.0 |
| 20260507170058 | 55 | 107 | 0.0 | 1.7 | 0.00 | 0.37 | 0.37 | 80 | 1010.9 |
| 20260507165552 | 54 | 40 | 0.0 | 0.9 | 0.00 | 0.37 | 0.37 | 78 | 1011.4 |
| 20260507165046 | 54 | 30 | 0.0 | 1.7 | 0.00 | 0.37 | 0.37 | 78 | 1011.6 |
| 20260507164541 | 54 | 30 | 0.0 | 1.7 | 0.00 | 0.37 | 0.37 | 82 | 1011.9 |
| 20260507164034 | 54 | 71 | 0.0 | 1.7 | 0.00 | 0.37 | 0.37 | 85 | 1011.8 |
| 20260507163529 | 54 | 71 | 0.9 | 1.7 | 0.00 | 0.37 | 0.37 | 77 | 1012.0 |
| 20260507163022 | 55 | 71 | 0.9 | 1.7 | 0.00 | 0.37 | 0.37 | 68 | 1011.8 |
| 20260507162516 | 55 | 57 | 0.0 | 2.6 | 0.00 | 0.37 | 0.37 | 64 | 1012.1 |
| 20260507162016 | 55 | 74 | 0.0 | 2.6 | 0.00 | 0.37 | 0.37 | 63 | 1011.9 |
| 20260507161514 | 55 | 70 | 0.0 | 1.7 | 0.00 | 0.37 | 0.37 | 66 | 1011.7 |
| 20260507161012 | 55 | 61 | 0.0 | 1.7 | 0.00 | 0.37 | 0.37 | 66 | 1011.7 |
| 20260507160509 | 55 | 61 | 0.0 | 2.6 | 0.00 | 0.37 | 0.37 | 66 | 1011.8 |
| 20260507160010 | 55 | 21 | 0.9 | 2.6 | 0.00 | 0.37 | 0.37 | 68 | 1011.9 |
| 20260507155509 | 55 | 54 | 0.0 | 2.6 | 0.00 | 0.37 | 0.37 | 72 | 1011.8 |
| 20260507155006 | 55 | 28 | 0.0 | 1.7 | 0.00 | 0.37 | 0.37 | 73 | 1011.9 |
| 20260507154505 | 55 | 59 | 0.0 | 1.7 | 0.00 | 0.37 | 0.37 | 74 | 1011.9 |
| 20260507154007 | 55 | 76 | 0.0 | 1.7 | 0.00 | 0.37 | 0.37 | 71 | 1012.0 |